Time,TemperatureF,DewpointF,PressureIn,WindDirection,WindDirectionDegrees,WindSpeedMPH,WindSpeedGustMPH,Humidity,HourlyPrecipIn,Conditions,Clouds,dailyrainin,SoftwareType,DateUTC
2013-04-16 00:02:00,69.0,67.0,30.16,ENE,68,0.0,0.0,94,0.00,,,-99.99,,2013-04-16 05:02:00,
2013-04-16 00:12:00,69.0,67.0,30.16,ENE,68,0.0,0.0,94,0.00,,,-99.99,,2013-04-16 05:12:00,
2013-04-16 00:22:00,69.0,67.0,30.16,ENE,68,0.0,0.0,94,0.00,,,-99.99,,2013-04-16 05:22:00,
2013-04-16 00:32:00,69.0,67.0,30.13,East,90,0.0,0.0,94,0.00,,,-99.99,,2013-04-16 05:32:00,
2013-04-16 00:42:00,69.0,67.0,30.13,East,90,0.0,0.0,94,0.00,,,-99.99,,2013-04-16 05:42:00,
2013-04-16 00:52:00,69.0,68.0,30.16,East,90,0.0,0.0,96,0.00,,,-99.99,,2013-04-16 05:52:00,
2013-04-16 01:02:00,69.0,68.0,30.16,East,90,0.0,0.0,96,0.00,,,-99.99,,2013-04-16 06:02:00,
2013-04-16 01:12:00,69.0,68.0,30.16,East,90,0.0,0.0,96,0.00,,,-99.99,,2013-04-16 06:12:00,
2013-04-16 01:22:00,68.0,67.0,30.16,East,90,0.0,0.0,96,-99.99,,,-99.99,,2013-04-16 06:22:00,
2013-04-16 01:32:00,68.0,67.0,30.16,East,90,0.0,0.0,96,0.00,,,-99.99,,2013-04-16 06:32:00,
2013-04-16 01:42:00,68.0,67.0,30.16,East,90,0.0,0.0,96,0.00,,,-99.99,,2013-04-16 06:42:00,
2013-04-16 01:52:00,68.0,67.0,30.16,East,90,0.0,0.0,96,0.00,,,-99.99,,2013-04-16 06:52:00,
2013-04-16 02:02:00,68.0,67.0,30.16,East,90,0.0,0.0,97,0.00,,,-99.99,,2013-04-16 07:02:00,
2013-04-16 02:12:00,68.0,67.0,30.16,East,90,0.0,0.0,97,0.00,,,-99.99,,2013-04-16 07:12:00,
2013-04-16 02:22:00,68.0,67.0,30.13,East,90,0.0,0.0,97,0.00,,,-99.99,,2013-04-16 07:22:00,
2013-04-16 02:32:00,68.0,67.0,30.13,East,90,0.0,0.0,97,0.00,,,-99.99,,2013-04-16 07:32:00,
2013-04-16 02:42:00,68.0,67.0,30.13,East,90,0.0,0.0,97,0.00,,,-99.99,,2013-04-16 07:42:00,
2013-04-16 02:53:00,67.0,66.0,30.13,East,90,0.0,0.0,97,0.00,,,-99.99,,2013-04-16 07:53:00,
2013-04-16 03:02:00,67.0,66.0,30.10,East,90,0.0,0.0,97,0.00,,,-99.99,,2013-04-16 08:02:00,
2013-04-16 03:12:00,67.0,66.0,30.10,East,90,0.0,0.0,97,0.00,,,-99.99,,2013-04-16 08:12:00,
2013-04-16 03:22:00,67.0,66.0,30.10,East,90,0.0,0.0,97,0.00,,,-99.99,,2013-04-16 08:22:00,
2013-04-16 03:32:00,67.0,66.0,30.10,ESE,105,0.0,0.0,97,0.00,,,-99.99,,2013-04-16 08:32:00,
2013-04-16 03:42:00,67.0,66.0,30.10,ESE,105,0.0,0.0,97,0.00,,,-99.99,,2013-04-16 08:42:00,
2013-04-16 03:52:00,67.0,66.0,30.10,ESE,105,0.0,0.0,97,0.00,,,-99.99,,2013-04-16 08:52:00,
2013-04-16 04:02:00,67.0,66.0,30.13,East,90,0.0,0.0,97,-99.99,,,-99.99,,2013-04-16 09:02:00,
2013-04-16 04:12:00,67.0,66.0,30.13,East,90,0.0,0.0,97,-99.99,,,-99.99,,2013-04-16 09:12:00,
2013-04-16 04:22:00,66.0,65.0,30.13,East,90,0.0,0.0,97,0.00,,,-99.99,,2013-04-16 09:22:00,
2013-04-16 04:33:00,66.0,65.0,30.13,East,90,0.0,0.0,97,0.00,,,-99.99,,2013-04-16 09:33:00,
2013-04-16 04:43:00,66.0,65.0,30.13,East,90,0.0,0.0,97,0.00,,,-99.99,,2013-04-16 09:43:00,
2013-04-16 04:53:00,66.0,65.0,30.13,East,90,0.0,0.0,98,0.00,,,-99.99,,2013-04-16 09:53:00,
2013-04-16 05:03:00,66.0,65.0,30.13,East,90,0.0,0.0,98,0.00,,,-99.99,,2013-04-16 10:03:00,
2013-04-16 05:13:00,66.0,65.0,30.13,East,90,0.0,0.0,98,0.00,,,-99.99,,2013-04-16 10:13:00,
2013-04-16 05:23:00,66.0,65.0,30.13,East,90,0.0,0.0,98,0.00,,,-99.99,,2013-04-16 10:23:00,
2013-04-16 05:33:00,66.0,65.0,30.13,East,90,0.0,0.0,98,0.00,,,-99.99,,2013-04-16 10:33:00,
2013-04-16 05:42:00,66.0,65.0,30.13,East,90,0.0,0.0,98,0.00,,,-99.99,,2013-04-16 10:42:00,
2013-04-16 05:53:00,66.0,65.0,30.13,ENE,68,0.0,0.0,98,0.00,,,-99.99,,2013-04-16 10:53:00,
2013-04-16 06:02:00,66.0,65.0,30.13,ENE,68,0.0,0.0,98,0.00,,,-99.99,,2013-04-16 11:02:00,
2013-04-16 06:12:00,66.0,65.0,30.13,ENE,68,0.0,0.0,98,0.00,,,-99.99,,2013-04-16 11:12:00,
2013-04-16 06:22:00,66.0,65.0,30.13,ENE,68,0.0,0.0,98,0.00,,,-99.99,,2013-04-16 11:22:00,
2013-04-16 06:32:00,66.0,65.0,30.13,East,90,0.0,0.0,98,0.00,,,-99.99,,2013-04-16 11:32:00,
2013-04-16 06:42:00,66.0,65.0,30.13,East,90,0.0,0.0,98,0.00,,,-99.99,,2013-04-16 11:42:00,
2013-04-16 06:52:00,66.0,65.0,30.16,ENE,68,0.0,0.0,98,0.00,,,-99.99,,2013-04-16 11:52:00,
2013-04-16 07:02:00,66.0,65.0,30.16,East,90,0.0,0.0,98,0.00,,,-99.99,,2013-04-16 12:02:00,
2013-04-16 07:12:00,66.0,65.0,30.16,East,90,0.0,0.0,98,0.00,,,-99.99,,2013-04-16 12:12:00,
2013-04-16 07:22:00,66.0,65.0,30.16,East,90,0.0,0.0,98,0.00,,,-99.99,,2013-04-16 12:22:00,
2013-04-16 07:32:00,67.0,66.0,30.16,East,86,0.0,1.0,98,0.00,,,-99.99,,2013-04-16 12:32:00,
2013-04-16 07:42:00,67.0,66.0,30.16,East,86,0.0,1.0,98,0.00,,,-99.99,,2013-04-16 12:42:00,
2013-04-16 07:52:00,67.0,66.0,30.16,East,80,1.0,2.0,98,0.00,,,-99.99,,2013-04-16 12:52:00,
2013-04-16 08:02:00,68.0,67.0,30.16,ENE,73,0.0,2.0,98,0.00,,,-99.99,,2013-04-16 13:02:00,
2013-04-16 08:12:00,68.0,67.0,30.16,ENE,73,0.0,2.0,98,0.00,,,-99.99,,2013-04-16 13:12:00,
2013-04-16 08:22:00,68.0,67.0,30.19,East,94,0.0,3.0,97,0.00,,,-99.99,,2013-04-16 13:22:00,
2013-04-16 08:32:00,69.0,68.0,30.19,East,93,0.0,1.0,96,0.00,,,-99.99,,2013-04-16 13:32:00,
2013-04-16 08:42:00,69.0,68.0,30.19,East,93,0.0,1.0,96,0.00,,,-99.99,,2013-04-16 13:42:00,
2013-04-16 08:52:00,70.0,68.0,30.19,East,87,0.0,2.0,94,0.00,,,-99.99,,2013-04-16 13:52:00,
2013-04-16 09:02:00,71.0,69.0,30.19,East,93,1.0,3.0,92,0.00,,,-99.99,,2013-04-16 14:02:00,
2013-04-16 09:12:00,71.0,69.0,30.19,East,93,1.0,3.0,92,0.00,,,-99.99,,2013-04-16 14:12:00,
2013-04-16 09:22:00,71.0,69.0,30.19,East,93,1.0,3.0,92,0.00,,,-99.99,,2013-04-16 14:22:00,
2013-04-16 09:32:00,72.0,68.0,30.19,East,94,2.0,3.0,88,0.00,,,-99.99,,2013-04-16 14:32:00,
2013-04-16 09:42:00,72.0,68.0,30.19,East,94,2.0,3.0,88,0.00,,,-99.99,,2013-04-16 14:42:00,
2013-04-16 09:52:00,73.0,69.0,30.19,East,90,1.0,2.0,86,0.00,,,-99.99,,2013-04-16 14:52:00,
2013-04-16 10:02:00,73.0,68.0,30.19,East,86,1.0,3.0,83,0.00,,,-99.99,,2013-04-16 15:02:00,
2013-04-16 10:12:00,73.0,68.0,30.19,East,86,1.0,3.0,83,0.00,,,-99.99,,2013-04-16 15:12:00,
2013-04-16 10:22:00,74.0,68.0,30.22,ENE,75,0.0,2.0,82,0.00,,,-99.99,,2013-04-16 15:22:00,
2013-04-16 10:33:00,74.0,67.0,30.22,East,90,1.0,3.0,80,0.00,,,-99.99,,2013-04-16 15:33:00,
2013-04-16 10:43:00,74.0,67.0,30.22,East,90,1.0,3.0,80,0.00,,,-99.99,,2013-04-16 15:43:00,
2013-04-16 10:53:00,74.0,67.0,30.22,ESE,122,0.0,2.0,80,0.00,,,-99.99,,2013-04-16 15:53:00,
2013-04-16 11:03:00,75.0,68.0,30.25,ENE,74,1.0,2.0,79,0.00,,,-99.99,,2013-04-16 16:03:00,
2013-04-16 11:13:00,75.0,68.0,30.25,ENE,74,1.0,2.0,79,0.00,,,-99.99,,2013-04-16 16:13:00,
2013-04-16 11:23:00,76.0,69.0,30.22,East,96,1.0,3.0,78,0.00,,,-99.99,,2013-04-16 16:23:00,
2013-04-16 11:32:00,76.0,68.0,30.22,ESE,112,0.0,2.0,77,0.00,,,-99.99,,2013-04-16 16:32:00,
2013-04-16 11:42:00,76.0,68.0,30.22,ESE,112,0.0,2.0,77,0.00,,,-99.99,,2013-04-16 16:42:00,
2013-04-16 11:52:00,76.0,68.0,30.19,East,90,0.0,2.0,76,0.00,,,-99.99,,2013-04-16 16:52:00,
2013-04-16 12:02:00,77.0,69.0,30.22,SSE,154,0.0,1.0,76,0.00,,,-99.99,,2013-04-16 17:02:00,
2013-04-16 12:12:00,77.0,69.0,30.22,SSE,154,0.0,1.0,76,0.00,,,-99.99,,2013-04-16 17:12:00,
2013-04-16 12:22:00,77.0,69.0,30.22,East,87,0.0,2.0,76,0.00,,,-99.99,,2013-04-16 17:22:00,
2013-04-16 12:32:00,77.0,68.0,30.22,East,98,0.0,3.0,75,0.00,,,-99.99,,2013-04-16 17:32:00,
2013-04-16 12:43:00,77.0,68.0,30.22,East,98,0.0,3.0,75,0.00,,,-99.99,,2013-04-16 17:43:00,
2013-04-16 12:53:00,78.0,69.0,30.22,ESE,105,0.0,2.0,75,0.00,,,-99.99,,2013-04-16 17:53:00,
2013-04-16 13:02:00,78.0,69.0,30.22,ESE,112,0.0,2.0,73,0.00,,,-99.99,,2013-04-16 18:02:00,
2013-04-16 13:12:00,78.0,69.0,30.22,ESE,112,0.0,2.0,73,0.00,,,-99.99,,2013-04-16 18:12:00,
2013-04-16 13:22:00,78.0,69.0,30.22,ESE,112,0.0,2.0,73,0.00,,,-99.99,,2013-04-16 18:22:00,
2013-04-16 13:32:00,79.0,69.0,30.22,ESE,112,0.0,2.0,71,-99.99,,,-99.99,,2013-04-16 18:32:00,
2013-04-16 13:42:00,79.0,69.0,30.22,ESE,112,0.0,2.0,71,-99.99,,,-99.99,,2013-04-16 18:42:00,
2013-04-16 13:52:00,79.0,69.0,30.25,ESE,122,0.0,0.0,71,0.00,,,-99.99,,2013-04-16 18:52:00,
2013-04-16 14:02:00,80.0,70.0,30.25,East,90,0.0,0.0,71,0.00,,,-99.99,,2013-04-16 19:02:00,
2013-04-16 14:12:00,80.0,70.0,30.25,East,90,0.0,0.0,71,0.00,,,-99.99,,2013-04-16 19:12:00,
2013-04-16 14:22:00,80.0,70.0,30.25,East,90,0.0,0.0,71,0.00,,,-99.99,,2013-04-16 19:22:00,
2013-04-16 14:32:00,81.0,69.0,30.22,SE,128,0.0,1.0,67,0.00,,,-99.99,,2013-04-16 19:32:00,
2013-04-16 14:42:00,81.0,69.0,30.22,SE,128,0.0,1.0,67,0.00,,,-99.99,,2013-04-16 19:42:00,
2013-04-16 14:52:00,82.0,69.0,30.22,ESE,103,0.0,1.0,66,0.00,,,-99.99,,2013-04-16 19:52:00,
2013-04-16 15:02:00,82.0,69.0,30.22,SE,135,0.0,0.0,66,0.00,,,-99.99,,2013-04-16 20:02:00,
2013-04-16 15:12:00,82.0,69.0,30.22,SE,135,0.0,0.0,66,0.00,,,-99.99,,2013-04-16 20:12:00,
2013-04-16 15:22:00,83.0,70.0,30.19,East,96,0.0,1.0,65,-99.99,,,-99.99,,2013-04-16 20:22:00,
2013-04-16 15:32:00,83.0,70.0,30.19,SSE,154,0.0,0.0,65,0.00,,,-99.99,,2013-04-16 20:32:00,
2013-04-16 15:42:00,83.0,70.0,30.19,SSE,154,0.0,0.0,65,0.00,,,-99.99,,2013-04-16 20:42:00,
2013-04-16 15:52:00,82.0,69.0,30.19,ESE,122,0.0,0.0,65,0.00,,,-99.99,,2013-04-16 20:52:00,
2013-04-16 16:02:00,82.0,69.0,30.19,SE,124,0.0,0.0,64,0.00,,,-99.99,,2013-04-16 21:02:00,
2013-04-16 16:12:00,82.0,69.0,30.19,SE,124,0.0,0.0,64,0.00,,,-99.99,,2013-04-16 21:12:00,
2013-04-16 16:22:00,81.0,68.0,30.19,ENE,68,0.0,2.0,65,0.00,,,-99.99,,2013-04-16 21:22:00,
2013-04-16 16:32:00,81.0,68.0,30.19,ENE,68,0.0,2.0,65,0.00,,,-99.99,,2013-04-16 21:32:00,
2013-04-16 16:43:00,81.0,68.0,30.19,ENE,68,0.0,2.0,65,0.00,,,-99.99,,2013-04-16 21:43:00,
2013-04-16 16:53:00,81.0,69.0,30.19,SE,135,0.0,0.0,66,0.00,,,-99.99,,2013-04-16 21:53:00,
2013-04-16 17:02:00,80.0,68.0,30.19,SSE,158,0.0,0.0,67,0.00,,,-99.99,,2013-04-16 22:02:00,
2013-04-16 17:13:00,80.0,68.0,30.19,SSE,158,0.0,0.0,67,0.00,,,-99.99,,2013-04-16 22:13:00,
2013-04-16 17:22:00,80.0,68.0,30.19,South,180,0.0,0.0,67,0.00,,,-99.99,,2013-04-16 22:22:00,
2013-04-16 17:33:00,80.0,68.0,30.19,WNW,292,0.0,0.0,66,0.00,,,-99.99,,2013-04-16 22:33:00,
2013-04-16 17:42:00,80.0,68.0,30.19,WNW,292,0.0,0.0,66,0.00,,,-99.99,,2013-04-16 22:42:00,
2013-04-16 17:52:00,81.0,69.0,30.19,SE,135,0.0,0.0,66,0.00,,,-99.99,,2013-04-16 22:52:00,
2013-04-16 18:02:00,81.0,69.0,30.19,ESE,112,0.0,0.0,66,0.00,,,-99.99,,2013-04-16 23:02:00,
2013-04-16 18:12:00,81.0,69.0,30.19,ESE,112,0.0,0.0,66,0.00,,,-99.99,,2013-04-16 23:12:00,
2013-04-16 18:22:00,82.0,69.0,30.19,South,180,0.0,0.0,66,0.00,,,-99.99,,2013-04-16 23:22:00,
2013-04-16 18:32:00,82.0,68.0,30.19,SW,218,0.0,0.0,63,0.00,,,-99.99,,2013-04-16 23:32:00,
2013-04-16 18:42:00,82.0,68.0,30.19,SW,218,0.0,0.0,63,0.00,,,-99.99,,2013-04-16 23:42:00,
2013-04-16 18:52:00,82.0,68.0,30.19,South,180,0.0,0.0,63,0.00,,,-99.99,,2013-04-16 23:52:00,
2013-04-16 19:02:00,80.0,68.0,30.19,South,180,0.0,0.0,66,0.00,,,-99.99,,2013-04-17 00:02:00,
2013-04-16 19:12:00,80.0,68.0,30.19,South,180,0.0,0.0,66,0.00,,,-99.99,,2013-04-17 00:12:00,
2013-04-16 19:22:00,77.0,67.0,30.19,SSE,158,0.0,0.0,71,0.00,,,-99.99,,2013-04-17 00:22:00,
2013-04-16 19:32:00,75.0,67.0,30.19,East,82,0.0,0.0,75,0.00,,,-99.99,,2013-04-17 00:32:00,
2013-04-16 19:42:00,75.0,67.0,30.19,East,82,0.0,0.0,75,0.00,,,-99.99,,2013-04-17 00:42:00,
2013-04-16 19:52:00,74.0,66.0,30.19,East,90,0.0,0.0,77,0.00,,,-99.99,,2013-04-17 00:52:00,
2013-04-16 20:02:00,73.0,66.0,30.19,SW,225,0.0,0.0,80,0.00,,,-99.99,,2013-04-17 01:02:00,
2013-04-16 20:12:00,73.0,66.0,30.19,SW,225,0.0,0.0,80,0.00,,,-99.99,,2013-04-17 01:12:00,
2013-04-16 20:22:00,73.0,66.0,30.19,SW,225,0.0,0.0,80,0.00,,,-99.99,,2013-04-17 01:22:00,
2013-04-16 20:32:00,72.0,67.0,30.19,SW,225,0.0,0.0,83,0.00,,,-99.99,,2013-04-17 01:32:00,
2013-04-16 20:42:00,72.0,67.0,30.19,SW,225,0.0,0.0,83,0.00,,,-99.99,,2013-04-17 01:42:00,
2013-04-16 20:52:00,72.0,68.0,30.19,SW,225,0.0,0.0,86,0.00,,,-99.99,,2013-04-17 01:52:00,
2013-04-16 21:02:00,72.0,68.0,30.19,SW,225,0.0,0.0,87,0.00,,,-99.99,,2013-04-17 02:02:00,
2013-04-16 21:12:00,72.0,68.0,30.19,SW,225,0.0,0.0,87,0.00,,,-99.99,,2013-04-17 02:12:00,
2013-04-16 21:22:00,71.0,67.0,30.19,SW,225,0.0,0.0,88,0.00,,,-99.99,,2013-04-17 02:22:00,
2013-04-16 21:32:00,71.0,68.0,30.22,SW,225,0.0,0.0,89,0.00,,,-99.99,,2013-04-17 02:32:00,
2013-04-16 21:42:00,71.0,68.0,30.22,SW,225,0.0,0.0,89,0.00,,,-99.99,,2013-04-17 02:42:00,
2013-04-16 21:52:00,71.0,68.0,30.22,SW,225,0.0,0.0,90,0.00,,,-99.99,,2013-04-17 02:52:00,
2013-04-16 22:02:00,71.0,68.0,30.22,SW,225,0.0,0.0,90,0.00,,,-99.99,,2013-04-17 03:02:00,
2013-04-16 22:12:00,71.0,68.0,30.22,SW,225,0.0,0.0,90,0.00,,,-99.99,,2013-04-17 03:12:00,
2013-04-16 22:22:00,70.0,67.0,30.22,SW,225,0.0,0.0,91,0.00,,,-99.99,,2013-04-17 03:22:00,
2013-04-16 22:32:00,70.0,67.0,30.22,SW,225,0.0,0.0,91,0.00,,,-99.99,,2013-04-17 03:32:00,
2013-04-16 22:42:00,70.0,67.0,30.22,SW,225,0.0,0.0,91,0.00,,,-99.99,,2013-04-17 03:42:00,
2013-04-16 22:53:00,70.0,67.0,30.22,SW,225,0.0,0.0,91,0.00,,,-99.99,,2013-04-17 03:53:00,
2013-04-16 23:03:00,69.0,67.0,30.22,SW,225,0.0,0.0,93,0.00,,,-99.99,,2013-04-17 04:03:00,
2013-04-16 23:13:00,69.0,67.0,30.22,SW,225,0.0,0.0,93,0.00,,,-99.99,,2013-04-17 04:13:00,
2013-04-16 23:22:00,69.0,67.0,30.22,SW,225,0.0,0.0,93,0.00,,,-99.99,,2013-04-17 04:22:00,
2013-04-16 23:33:00,69.0,67.0,30.22,SW,225,0.0,0.0,93,0.00,,,-99.99,,2013-04-17 04:33:00,
2013-04-16 23:42:00,69.0,67.0,30.22,SW,225,0.0,0.0,93,0.00,,,-99.99,,2013-04-17 04:42:00,
2013-04-16 23:52:00,69.0,67.0,30.22,SW,225,0.0,0.0,94,0.00,,,-99.99,,2013-04-17 04:52:00,